Dewpoint
25 26 29 33 35 37 37 38 39 41 44 46 48 49 50 50 49 51 50 52 52 52 52 53 53 53 53
27 30 32 35 38 38 38 38 42 44 46 47 47 48 49 48 49 48 49 48 49 49 50 50 51 51 51
31 32 34 35 34 35 37 40 39 41 42 43 44 47 47 49 47 45 48 46 46 47 47 47 48 49 50
33 33 34 34 34 34 35 36 39 38 39 41 45 45 45 44 44 44 45 46 46 46 45 46 45 46 47
32 33 33 32 33 34 35 36 35 35 40 41 40 40 40 41 42 43 45 47 47 45 45 44 44 44 45
32 32 32 32 33 34 34 33 30 35 36 35 35 34 38 40 42 42 45 46 44 43 42 41 42 42 42
30 32 32 32 32 32 32 32 29 31 32 31 33 33 37 38 40 41 43 45 43 43 42 42 42 41 41
33 35 33 33 33 32 30 30 30 30 32 30 32 32 33 36 36 42 41 41 41 40 40 40 39 39 39
34 34 35 35 35 32 31 30 28 27 30 31 30 32 32 31 37 38 37 37 37 36 37 38 37 37 38
33 34 36 36 35 34 32 30 28 27 30 30 30 29 28 31 37 36 34 34 34 33 35 35 35 35 36
33 33 32 32 33 33 33 31 30 28 31 31 29 28 27 27 29 30 30 32 30 30 32 32 32 33 33
34 32 32 32 33 33 32 32 32 31 30 30 29 27 26 26 25 28 29 29 29 30 29 31 32 31 32
32 32 33 33 35 34 34 33 32 32 31 32 31 28 28 25 25 26 27 27 28 29 30 29 29 29 29
32 32 33 34 33 32 31 31 29 28 31 31 31 30 27 27 28 27 26 25 27 28 27 28 29 29 28
32 33 33 33 31 32 31 30 27 25 26 28 30 30 29 29 27 26 25 26 28 27 28 27 27 28 27
31 31 32 32 31 31 30 28 26 25 25 26 26 27 27 28 29 27 28 26 27 28 29 27 26 26 26
31 31 31 31 31 30 28 27 25 25 26 26 25 24 22 22 24 29 27 26 27 26 26 27 25 26 25
Wind_Speed
15 13 14 15 15 14 13 14 13 12 14 14 15 15 14 15 15 12 12 12 13 13 14 15 16 17 18
15 13 12 10 11 15 16 14 11 14 15 14 15 15 13 13 12 9 8 11 11 12 12 13 14 16 18
18 14 13 11 12 10 13 12 13 11 13 14 16 13 11 10 9 13 12 10 11 11 13 13 15 15 15
17 16 13 12 11 11 11 12 11 14 14 13 10 9 8 10 15 16 13 11 12 11 12 12 13 15 17
15 15 14 11 11 10 12 11 15 14 11 9 10 11 12 14 13 12 11 11 7 6 9 12 13 15 17
15 16 16 14 11 11 11 12 10 3 8 13 15 16 13 10 12 14 14 9 7 5 10 13 13 14 16
21 20 18 15 12 13 13 13 14 13 12 16 10 15 12 11 12 12 14 11 8 7 10 11 12 14 16
22 23 19 17 13 14 14 14 16 14 12 11 8 11 12 12 12 4 3 3 4 6 8 9 12 14 17
24 23 19 17 15 13 13 13 13 11 8 10 8 10 11 13 4 2 3 3 6 8 8 10 13 15 14
17 19 23 19 20 18 15 15 13 9 6 6 5 4 5 5 1 4 6 4 9 10 11 11 12 12 12
17 17 16 17 16 16 16 16 15 17 4 4 4 5 6 7 9 8 10 8 11 13 11 12 12 12 12
17 18 17 16 16 15 15 15 15 17 10 9 6 7 9 12 11 4 8 12 12 10 13 12 14 12 12
18 18 16 17 14 10 11 12 12 13 14 14 14 13 14 14 11 12 12 7 13 7 9 12 13 12 13
18 18 16 14 15 15 13 12 13 14 15 17 17 16 17 17 16 18 13 9 7 11 12 11 12 11 11
18 18 18 17 18 16 15 13 14 13 12 11 14 15 15 17 17 17 15 14 12 11 9 10 11 11 11
18 18 19 18 18 17 16 16 16 15 14 12 11 11 12 15 24 19 15 13 9 8 9 11 12 11 11
19 20 20 19 19 17 17 16 16 15 13 11 12 13 14 15 6 21 13 9 7 8 9 10 12 12 12
Wind_Direction
281 287 293 294 300 303 305 301 300 277 276 283 282 281 281 286 291 286 303 304 293 287 288 290 288 285 279
286 287 284 297 310 304 310 295 299 313 322 304 294 280 279 287 282 296 295 290 288 293 295 295 298 293 285
284 289 284 287 289 290 293 310 305 304 296 286 278 281 288 284 293 293 270 268 283 293 295 299 300 300 298
276 284 288 293 289 291 293 300 312 307 295 285 305 309 288 289 292 285 280 253 261 278 293 299 302 304 300
273 281 284 286 290 303 296 300 302 294 306 299 305 300 293 293 276 271 302 273 243 271 300 303 305 308 308
271 273 279 281 285 285 293 299 307 312 338 297 301 290 288 296 307 299 289 247 261 279 288 295 297 302 303
261 262 270 274 277 277 276 279 278 290 299 293 288 286 278 279 292 299 289 250 259 282 283 294 299 302 304
253 264 266 270 256 267 275 282 281 280 275 276 277 287 294 284 297 350 25 349 294 298 290 295 300 300 303
258 263 265 258 249 258 253 264 279 276 244 270 282 295 277 280 242 84 5 356 327 317 304 302 304 304 294
262 260 252 246 242 238 245 244 249 287 227 217 280 300 300 255 247 274 283 275 306 307 304 306 309 307 296
267 260 253 243 238 233 231 233 233 238 203 202 262 257 251 289 288 280 303 296 305 301 289 294 302 303 297
257 257 252 243 237 229 226 228 229 236 244 223 240 242 259 282 278 251 294 300 301 295 304 301 297 288 285
262 260 248 252 245 230 225 224 236 241 242 236 239 248 248 254 265 284 303 288 293 280 295 302 299 299 298
252 254 257 245 223 223 226 222 232 245 226 228 228 231 246 249 256 269 275 273 277 294 294 291 290 291 285
259 254 248 240 228 223 212 212 225 241 239 228 227 224 234 243 256 259 266 267 264 279 287 285 290 288 286
259 262 256 245 232 222 208 208 221 232 236 234 232 226 236 246 234 248 250 260 261 266 266 277 287 290 292
255 256 255 249 238 225 215 208 215 223 225 212 221 222 227 243 252 215 234 239 250 271 272 266 278 286 301